This is the latest recevied weather packets stored in our database for station/object KD4UFD. If no packets are shown the sender has not sent any weather packets the latest 10 day(s).
| Time | Temp. | Humidity | Pressure | Rain* | Wind** | Luminosity | Snow |
|---|---|---|---|---|---|---|---|
| 1777472152 | 18.89° C | 86% | 1012.5 hPa | 0 mm | - | 137 W/m² | - |
| 1777471852 | 18.89° C | 86% | 1012.4 hPa | 0 mm | - | 266 W/m² | - |
| 1777471549 | 18.89° C | 86% | 1012.6 hPa | 0 mm | - | 271 W/m² | - |
| 1777471245 | 18.89° C | 85% | 1012.5 hPa | 0 mm | - | 171 W/m² | - |
| 1777470942 | 18.89° C | 85% | 1012.5 hPa | 0 mm | - | 186 W/m² | - |
| 1777470639 | 18.89° C | 85% | 1012.7 hPa | 0 mm | - | 206 W/m² | - |
| 1777470335 | 18.89° C | 85% | 1012.4 hPa | 0 mm | - | 180 W/m² | - |
| 1777470032 | 19.44° C | 84% | 1012.7 hPa | 0 mm | - | 280 W/m² | - |
| 1777469727 | 18.89° C | 85% | 1012.5 hPa | 0 mm | - | 213 W/m² | - |
| 1777469424 | 18.89° C | 86% | 1012.5 hPa | 0 mm | - | 138 W/m² | - |
| 1777469120 | 18.89° C | 87% | 1012.8 hPa | 0 mm | - | 248 W/m² | - |
| 1777468819 | 18.89° C | 86% | 1012.9 hPa | 0 mm | - | 111 W/m² | - |
| 1777468516 | 18.89° C | 85% | 1012.9 hPa | 0 mm | - | 147 W/m² | - |
| 1777468212 | 18.89° C | 87% | 1012.8 hPa | 0 mm | - | 308 W/m² | - |
| 1777467909 | 18.33° C | 88% | 1012.7 hPa | 0 mm | - | 212 W/m² | - |
| 1777467605 | 18.33° C | 89% | 1012.8 hPa | 0 mm | - | 164 W/m² | - |
| 1777467300 | 18.33° C | 90% | 1012.8 hPa | 0 mm | - | 168 W/m² | - |
| 1777466996 | 17.78° C | 90% | 1012.7 hPa | 0 mm | - | 131 W/m² | - |
| 1777466694 | 17.78° C | 91% | 1012.9 hPa | 0 mm | - | 117 W/m² | - |
| 1777466391 | 17.78° C | 91% | 1012.7 hPa | 0 mm | - | 99 W/m² | - |
| 1777466087 | 17.78° C | 91% | 1012.8 hPa | 0 mm | - | 72 W/m² | - |
| 1777465784 | 17.78° C | 92% | 1012.6 hPa | 0 mm | - | 66 W/m² | - |
| 1777465479 | 17.78° C | 92% | 1012.6 hPa | 0 mm | - | 89 W/m² | - |
| 1777465178 | 17.78° C | 92% | 1012.6 hPa | 0 mm | - | 81 W/m² | - |
| 1777464873 | 17.78° C | 92% | 1012.7 hPa | 0 mm | - | 64 W/m² | - |
* Rain latest hour (hover to see other rain measurements)
** Current wind speed in m/s (hover to see current wind gust speed)